Temp
-6 -7 -7 -9 -8 -8 -8 -8 -8 -8 -8 -9 -9 -7 -8 -9 -7 -8 -9 -9 -9 -11 -10 -10 -10 -10 -10 -11 -11 -11 -11 -11 -11 -11 -11 -11 -12 -12 -11 -11 -11 -11 -11 -11
-6 -7 -9 -9 -7 -7 -8 -8 -8 -8 -8 -8 -9 -8 -9 -8 -8 -10 -9 -9 -10 -10 -11 -10 -10 -11 -11 -11 -12 -12 -12 -12 -12 -12 -12 -12 -11 -11 -11 -11 -11 -11 -11 -11
-9 -9 -8 -8 -7 -7 -9 -8 -8 -8 -9 -9 -9 -9 -9 -10 -8 -11 -10 -9 -10 -11 -11 -10 -11 -11 -11 -11 -11 -11 -11 -11 -11 -11 -11 -11 -11 -11 -11 -11 -11 -11 -11 -11
-9 -9 -8 -8 -8 -8 -9 -8 -8 -8 -8 -9 -9 -9 -9 -9 -10 -9 -8 -10 -8 -11 -11 -11 -11 -10 -10 -10 -10 -10 -10 -10 -10 -11 -11 -11 -11 -11 -11 -11 -11 -11 -11 -11
-9 -8 -8 -9 -9 -8 -9 -8 -8 -7 -9 -9 -10 -9 -9 -9 -8 -9 -9 -11 -11 -11 -11 -11 -11 -11 -11 -11 -11 -11 -11 -12 -12 -13 -12 -12 -12 -12 -12 -13 -13 -12 -12 -12
-9 -9 -9 -9 -7 -8 -8 -8 -8 -8 -9 -9 -9 -9 -9 -9 -10 -10 -9 -10 -10 -11 -11 -11 -11 -11 -12 -12 -13 -13 -13 -14 -14 -13 -14 -14 -14 -14 -14 -14 -14 -14 -14 -14
-10 -9 -9 -7 -8 -8 -8 -9 -9 -9 -9 -8 -8 -9 -9 -10 -10 -9 -9 -10 -10 -11 -11 -12 -12 -13 -13 -13 -13 -14 -14 -14 -15 -15 -15 -15 -15 -15 -15 -15 -15 -16 -16 -16
-9 -9 -9 -8 -9 -10 -9 -9 -9 -9 -8 -8 -9 -10 -9 -10 -10 -9 -10 -10 -10 -11 -12 -12 -13 -12 -12 -13 -13 -14 -15 -15 -15 -16 -16 -16 -16 -16 -16 -16 -16 -16 -16 -16
-9 -9 -10 -9 -9 -9 -10 -10 -9 -9 -9 -9 -10 -9 -9 -10 -10 -11 -11 -11 -11 -12 -12 -13 -13 -12 -13 -13 -12 -13 -13 -13 -15 -15 -16 -16 -16 -16 -16 -16 -16 -16 -17 -16
-10 -9 -10 -9 -8 -9 -9 -9 -9 -10 -10 -9 -9 -10 -10 -10 -10 -11 -11 -11 -11 -12 -13 -13 -12 -12 -12 -12 -12 -13 -13 -14 -14 -15 -16 -16 -16 -16 -16 -16 -17 -17 -17 -17
-9 -9 -10 -9 -9 -10 -10 -10 -10 -9 -9 -10 -10 -10 -10 -10 -10 -11 -11 -11 -12 -12 -12 -11 -11 -12 -12 -12 -12 -13 -13 -14 -15 -16 -16 -17 -17 -17 -17 -17 -17 -17 -17 -17
-9 -8 -10 -9 -8 -9 -10 -10 -9 -9 -10 -10 -10 -11 -11 -11 -11 -11 -11 -11 -11 -11 -11 -11 -11 -12 -12 -12 -12 -12 -13 -14 -16 -16 -16 -16 -17 -17 -17 -17 -18 -18 -17 -17
-8 -8 -9 -9 -10 -9 -10 -8 -9 -9 -9 -10 -11 -10 -10 -10 -11 -11 -11 -11 -11 -11 -11 -11 -11 -12 -12 -12 -12 -12 -13 -15 -16 -16 -16 -16 -17 -17 -17 -18 -18 -18 -18 -17
-8 -8 -9 -10 -10 -9 -9 -9 -9 -9 -9 -11 -11 -10 -10 -10 -11 -11 -11 -11 -11 -11 -11 -11 -12 -12 -12 -12 -12 -12 -14 -16 -16 -16 -16 -16 -17 -17 -17 -18 -18 -18 -18 -18
-8 -8 -9 -9 -9 -9 -9 -9 -9 -9 -9 -10 -10 -10 -11 -11 -11 -10 -11 -11 -11 -11 -11 -11 -12 -12 -12 -12 -12 -13 -14 -16 -16 -16 -16 -16 -16 -17 -17 -18 -18 -18 -18 -18
-8 -9 -9 -9 -9 -9 -9 -9 -9 -9 -9 -9 -9 -10 -11 -10 -10 -11 -11 -11 -11 -11 -12 -12 -12 -12 -13 -13 -13 -13 -14 -16 -16 -16 -16 -16 -17 -17 -18 -18 -18 -18 -18 -18
-9 -9 -9 -9 -9 -9 -9 -9 -9 -9 -9 -10 -10 -10 -11 -10 -10 -11 -11 -11 -11 -12 -12 -12 -12 -12 -13 -13 -13 -13 -14 -16 -16 -16 -16 -16 -17 -17 -17 -18 -18 -18 -18 -18
-9 -9 -9 -9 -9 -10 -9 -9 -9 -9 -10 -10 -10 -10 -10 -10 -10 -11 -12 -12 -12 -12 -12 -12 -12 -12 -13 -13 -13 -13 -14 -15 -15 -15 -16 -17 -17 -17 -17 -17 -18 -18 -18 -19
-9 -9 -9 -9 -10 -9 -9 -9 -9 -9 -9 -10 -10 -10 -11 -10 -10 -11 -12 -12 -12 -12 -12 -12 -12 -12 -13 -13 -13 -13 -14 -15 -15 -16 -16 -17 -17 -17 -17 -17 -18 -18 -18 -19
-10 -9 -10 -10 -11 -11 -9 -9 -9 -10 -10 -10 -10 -10 -11 -11 -10 -11 -12 -12 -12 -12 -12 -12 -12 -12 -13 -13 -13 -13 -14 -15 -15 -16 -16 -16 -16 -17 -17 -17 -18 -18 -18 -18
-10 -10 -10 -10 -11 -9 -10 -9 -10 -10 -9 -10 -10 -11 -10 -10 -11 -11 -12 -12 -12 -12 -12 -12 -12 -13 -13 -13 -13 -13 -13 -14 -15 -15 -16 -16 -16 -16 -17 -17 -18 -18 -18 -18
-10 -10 -10 -10 -10 -9 -9 -10 -10 -10 -10 -10 -10 -10 -10 -10 -11 -11 -12 -12 -12 -12 -12 -12 -12 -13 -13 -13 -13 -14 -14 -14 -14 -15 -16 -16 -16 -16 -17 -17 -17 -18 -18 -18
-10 -10 -9 -10 -9 -9 -10 -9 -10 -10 -10 -10 -10 -10 -10 -10 -11 -11 -12 -12 -12 -12 -12 -12 -12 -13 -13 -13 -14 -14 -14 -14 -14 -14 -15 -16 -16 -17 -17 -17 -17 -17 -18 -18
-10 -10 -9 -9 -9 -9 -9 -10 -10 -10 -10 -10 -10 -10 -10 -10 -11 -11 -12 -12 -12 -12 -12 -12 -13 -13 -13 -13 -14 -14 -14 -14 -14 -14 -15 -15 -16 -16 -17 -17 -17 -17 -17 -18
-10 -10 -10 -9 -9 -10 -10 -10 -10 -10 -10 -10 -10 -10 -10 -10 -11 -11 -12 -12 -12 -13 -12 -13 -13 -13 -13 -14 -14 -14 -14 -14 -14 -15 -15 -15 -15 -16 -16 -17 -17 -17 -17 -18
-10 -9 -9 -10 -9 -10 -10 -10 -10 -10 -10 -10 -10 -10 -10 -10 -11 -11 -11 -12 -12 -13 -13 -13 -13 -13 -14 -14 -14 -14 -14 -14 -14 -15 -15 -15 -16 -16 -16 -17 -17 -17 -18 -18
Height
5892 5894 5891 5895 5898 5901 5901 5903 5904 5899 5898 5896 5886 5866 5871 5874 5873 5871 5867 5866 5862 5857 5851 5846 5841 5837 5834 5831 5827 5822 5817 5812 5807 5800 5796 5790 5784 5779 5775 5770 5763 5762 5761 5758
5891 5893 5895 5900 5897 5898 5899 5901 5902 5895 5895 5894 5876 5864 5879 5877 5871 5870 5865 5864 5860 5853 5847 5842 5837 5834 5828 5825 5821 5816 5810 5803 5797 5792 5787 5784 5778 5774 5768 5763 5760 5756 5749 5746
5893 5898 5895 5897 5897 5897 5899 5901 5895 5894 5892 5887 5883 5880 5875 5870 5824 5858 5858 5855 5853 5848 5844 5842 5834 5828 5824 5818 5813 5806 5802 5797 5791 5785 5780 5775 5768 5760 5756 5749 5742 5737 5734 5733
5896 5893 5895 5896 5895 5896 5899 5897 5893 5891 5888 5887 5885 5876 5870 5868 5863 5861 5856 5844 5848 5830 5837 5837 5829 5822 5817 5810 5800 5792 5785 5781 5774 5769 5763 5755 5750 5741 5738 5734 5729 5723 5717 5714
5898 5892 5893 5893 5894 5894 5894 5892 5892 5889 5886 5887 5880 5879 5873 5870 5866 5861 5860 5853 5847 5845 5834 5829 5823 5816 5808 5800 5791 5784 5774 5767 5764 5759 5750 5746 5737 5729 5723 5718 5713 5708 5702 5697
5892 5890 5892 5894 5892 5893 5892 5891 5889 5888 5886 5886 5886 5883 5868 5863 5863 5860 5857 5853 5848 5841 5833 5826 5818 5811 5803 5793 5786 5779 5769 5759 5747 5744 5739 5732 5725 5716 5711 5704 5698 5692 5688 5684
5890 5888 5888 5889 5891 5891 5890 5888 5888 5888 5888 5887 5885 5873 5870 5865 5863 5858 5854 5850 5845 5836 5828 5820 5812 5804 5796 5786 5777 5767 5756 5746 5738 5731 5724 5717 5710 5702 5696 5691 5685 5680 5676 5672
5892 5890 5888 5889 5889 5892 5892 5889 5888 5886 5888 5889 5884 5874 5872 5866 5863 5857 5852 5846 5843 5834 5823 5816 5807 5799 5790 5777 5764 5753 5744 5734 5725 5719 5710 5702 5696 5690 5684 5680 5675 5669 5665 5662
5889 5892 5886 5887 5888 5888 5887 5888 5885 5887 5886 5886 5876 5875 5872 5862 5863 5858 5850 5844 5838 5831 5821 5810 5803 5792 5782 5772 5762 5752 5740 5730 5721 5712 5704 5695 5687 5681 5675 5669 5664 5660 5655 5651
5882 5885 5885 5884 5885 5886 5886 5885 5885 5885 5885 5885 5877 5870 5867 5865 5862 5857 5848 5840 5833 5826 5818 5808 5799 5791 5781 5772 5762 5752 5742 5731 5721 5711 5703 5694 5685 5677 5669 5663 5657 5653 5648 5644
5878 5883 5884 5884 5884 5883 5884 5882 5880 5881 5881 5880 5881 5868 5867 5863 5861 5855 5846 5838 5830 5821 5812 5803 5796 5789 5780 5770 5760 5751 5739 5729 5719 5709 5702 5693 5684 5675 5667 5660 5653 5649 5643 5640
5875 5878 5881 5878 5881 5881 5881 5879 5877 5877 5875 5874 5875 5863 5863 5859 5854 5849 5842 5834 5825 5817 5809 5802 5794 5787 5778 5768 5759 5748 5737 5725 5716 5707 5698 5689 5680 5672 5663 5655 5648 5643 5638 5634
5873 5875 5877 5880 5878 5876 5875 5874 5873 5873 5872 5870 5869 5861 5857 5856 5850 5843 5836 5829 5822 5816 5808 5801 5794 5786 5778 5768 5758 5746 5734 5723 5714 5705 5696 5686 5677 5668 5660 5652 5644 5638 5632 5628
5869 5871 5874 5874 5873 5871 5872 5872 5870 5869 5868 5867 5860 5855 5853 5848 5843 5838 5832 5826 5820 5813 5806 5800 5793 5785 5777 5767 5756 5744 5733 5721 5711 5703 5693 5684 5674 5665 5657 5649 5642 5636 5630 5625
5866 5868 5870 5870 5871 5870 5868 5867 5866 5865 5865 5862 5859 5854 5850 5845 5841 5834 5828 5824 5818 5811 5805 5799 5792 5784 5776 5766 5755 5743 5731 5720 5710 5701 5691 5682 5672 5663 5655 5647 5641 5635 5629 5624
5862 5865 5866 5867 5867 5867 5866 5865 5863 5863 5861 5858 5852 5852 5848 5841 5836 5830 5825 5821 5816 5811 5804 5798 5792 5784 5776 5766 5756 5744 5731 5720 5710 5702 5691 5681 5670 5662 5654 5647 5641 5635 5630 5623
5860 5862 5863 5862 5863 5863 5862 5862 5860 5860 5857 5855 5851 5846 5841 5837 5833 5826 5821 5818 5814 5809 5803 5798 5792 5784 5776 5767 5757 5745 5733 5722 5713 5703 5691 5681 5672 5664 5657 5650 5644 5638 5632 5626
5857 5859 5860 5859 5861 5860 5859 5859 5858 5856 5854 5851 5848 5844 5839 5834 5830 5822 5819 5816 5812 5808 5802 5797 5791 5784 5776 5768 5758 5747 5735 5725 5715 5704 5694 5685 5677 5670 5663 5656 5650 5643 5636 5630
5854 5856 5857 5857 5858 5858 5856 5856 5856 5853 5853 5848 5845 5841 5836 5828 5827 5821 5818 5814 5810 5806 5801 5796 5791 5783 5777 5769 5759 5749 5739 5727 5717 5708 5699 5691 5684 5676 5669 5663 5656 5648 5641 5634
5851 5853 5855 5856 5857 5855 5855 5854 5853 5851 5850 5846 5843 5839 5834 5828 5820 5817 5815 5812 5808 5805 5800 5796 5790 5784 5777 5770 5761 5752 5742 5731 5721 5712 5705 5698 5691 5683 5676 5669 5661 5653 5646 5639
5848 5851 5852 5853 5853 5851 5852 5851 5850 5849 5849 5844 5840 5836 5832 5827 5822 5817 5814 5811 5808 5804 5801 5796 5791 5785 5778 5771 5763 5755 5745 5735 5726 5717 5710 5703 5696 5689 5681 5674 5667 5659 5652 5645
5846 5847 5848 5848 5849 5850 5849 5849 5848 5847 5843 5841 5837 5833 5829 5825 5820 5816 5814 5811 5807 5803 5800 5796 5791 5785 5778 5772 5765 5757 5749 5740 5730 5722 5714 5708 5701 5694 5687 5680 5673 5666 5658 5653
5842 5845 5846 5847 5848 5847 5846 5846 5845 5843 5841 5838 5835 5831 5827 5823 5819 5814 5812 5809 5805 5802 5799 5795 5790 5784 5778 5772 5766 5758 5751 5743 5734 5726 5719 5712 5706 5699 5692 5686 5679 5673 5665 5659
5839 5840 5842 5844 5844 5844 5844 5843 5842 5841 5839 5836 5832 5828 5825 5821 5817 5813 5810 5808 5804 5801 5798 5794 5789 5784 5778 5772 5766 5760 5753 5745 5738 5730 5722 5716 5710 5704 5698 5691 5685 5678 5672 5666
5835 5837 5838 5841 5841 5841 5841 5840 5839 5838 5836 5833 5830 5827 5823 5819 5815 5811 5808 5806 5804 5800 5796 5793 5788 5782 5778 5772 5766 5761 5754 5748 5740 5733 5726 5720 5713 5707 5701 5695 5690 5684 5678 5673
5832 5835 5837 5838 5838 5838 5838 5837 5837 5835 5833 5830 5828 5824 5821 5817 5813 5810 5807 5805 5802 5799 5795 5791 5787 5782 5776 5771 5766 5761 5756 5749 5743 5736 5730 5723 5717 5710 5704 5698 5693 5688 5683 5678
Wind_Speed
6 7 11 14 10 11 12 9 9 24 29 20 23 16 22 12 17 19 21 24 27 30 34 36 37 39 39 40 42 46 46 45 44 44 42 43 44 45 45 46 48 46 43 41
9 8 7 18 14 11 15 3 11 26 26 13 23 13 8 10 26 16 22 27 30 33 35 37 41 43 44 43 44 44 44 44 43 43 44 45 46 45 46 47 47 46 49 49
10 7 8 10 9 9 2 6 22 23 20 21 23 33 22 26 15 3 18 33 34 37 39 39 41 45 44 45 44 46 44 43 44 47 48 46 50 52 51 52 55 55 53 51
3 21 17 10 3 7 6 18 21 17 17 11 18 28 15 26 32 23 52 46 23 40 19 46 44 44 44 45 55 56 57 56 57 58 58 58 57 60 59 58 56 57 56 55
7 15 10 4 11 9 8 13 7 8 11 13 19 25 29 30 25 40 34 44 43 35 49 54 48 51 54 53 56 59 62 63 63 59 61 62 63 63 61 59 57 57 56 56
10 12 6 13 5 5 5 2 11 11 11 13 20 22 27 33 35 36 44 44 44 44 47 50 50 52 52 56 58 61 65 66 68 66 61 57 56 56 55 56 56 53 49 47
11 9 11 7 4 7 12 12 13 19 15 13 20 23 28 32 34 42 41 48 50 49 49 51 52 53 55 60 64 63 62 64 63 59 55 51 50 50 49 46 44 41 39 39
5 9 11 8 6 6 6 6 7 9 6 9 11 19 34 38 32 41 49 52 50 47 49 51 53 56 60 61 63 64 61 57 56 52 51 51 48 43 39 37 36 37 37 35
12 12 18 19 11 10 8 6 11 7 5 7 20 21 30 20 38 41 49 50 47 44 47 52 54 56 52 47 40 37 38 41 38 40 41 42 43 42 41 39 38 35 34 33
14 13 11 19 7 6 9 11 6 6 5 4 18 28 31 35 37 42 45 45 44 45 46 50 42 34 32 36 37 38 38 38 39 39 39 39 39 38 38 37 34 31 30 29
23 24 6 13 6 5 4 10 8 9 13 11 10 32 28 34 33 35 38 38 42 45 42 24 26 29 31 33 36 36 40 41 39 37 36 38 38 37 37 37 35 32 30 28
25 18 10 16 2 12 17 21 21 16 14 14 15 30 27 33 34 32 31 36 38 25 19 24 25 27 31 35 38 41 43 43 38 35 36 37 36 35 34 34 32 29 27 27
13 18 19 6 12 13 15 11 15 13 11 13 11 27 27 27 26 28 32 29 20 22 21 25 27 30 33 36 40 44 45 43 36 34 37 36 37 34 32 32 30 26 25 26
13 14 14 17 10 12 15 18 14 13 11 10 23 26 26 26 26 29 30 15 23 17 23 25 29 32 35 39 42 46 46 43 37 36 36 37 38 37 34 31 28 27 25 24
11 13 14 19 18 19 21 18 14 13 11 14 19 22 19 22 23 27 20 21 18 20 23 26 30 34 36 39 42 46 46 41 37 38 37 39 39 37 36 33 29 26 25 24
9 9 12 13 14 16 16 14 14 13 14 15 22 17 17 22 24 26 16 20 20 23 23 27 32 35 38 40 42 45 46 40 38 39 38 42 39 38 34 33 31 25 27 26
9 8 10 15 14 13 16 11 12 13 13 15 19 22 23 23 24 27 15 15 17 20 24 27 31 35 38 40 42 45 46 40 37 39 42 40 38 35 33 31 30 30 29 29
9 8 10 16 11 12 11 10 11 15 16 16 17 19 21 24 21 24 12 13 16 19 22 27 30 33 36 39 42 44 45 42 40 42 40 38 36 35 36 36 35 33 31 29
10 12 13 14 13 13 15 10 12 16 13 16 17 19 20 27 23 16 10 13 14 18 21 26 29 32 34 39 41 42 44 44 42 41 39 36 34 35 36 35 35 36 33 30
13 12 12 12 7 17 6 9 11 15 12 15 17 17 19 22 28 21 13 17 17 20 22 25 30 31 33 37 39 41 43 44 41 39 35 33 34 36 36 35 38 36 34 32
12 13 13 13 15 19 11 12 13 14 16 16 17 16 20 20 22 17 13 17 16 17 20 26 29 32 32 34 37 40 42 43 40 36 32 30 32 34 36 36 38 36 35 33
13 14 14 18 17 13 12 12 13 13 15 15 16 17 19 18 20 15 11 14 15 18 22 26 28 29 31 32 35 39 40 41 42 35 29 29 29 32 34 36 37 36 35 33
16 15 13 13 12 11 10 12 12 12 14 15 16 17 19 17 19 17 10 13 17 20 20 25 28 28 28 30 32 35 37 39 40 39 33 27 27 29 30 32 34 36 35 32
15 16 14 15 11 11 11 11 11 12 13 14 15 17 18 17 18 17 11 13 16 15 19 23 27 28 26 28 30 31 33 36 37 37 37 34 30 26 26 27 30 33 34 32
14 16 15 13 12 11 10 10 11 12 12 13 16 16 17 16 17 18 12 12 14 16 19 22 26 27 27 28 28 28 29 31 33 34 34 34 33 32 29 25 26 28 30 30
18 15 13 9 11 9 10 9 10 11 11 14 16 15 16 16 16 18 16 13 15 18 19 23 27 26 26 27 26 26 27 28 29 31 32 33 33 32 30 28 25 24 24 25
Wind_Direction
155 186 75 18 340 248 214 231 238 254 269 283 303 330 324 312 330 345 348 335 332 325 329 329 328 326 324 321 319 316 314 310 308 308 309 310 308 308 306 306 304 306 299 292
102 80 83 225 220 228 218 253 244 262 302 293 262 278 246 300 300 310 0 343 332 325 323 327 330 325 321 321 317 314 310 310 309 308 308 306 303 302 301 299 296 294 292 292
83 256 227 217 214 215 233 230 258 274 280 312 320 339 313 303 157 316 7 345 334 332 326 335 329 324 320 317 316 312 308 303 299 300 304 301 302 302 300 300 298 295 292 289
117 253 248 252 190 194 200 280 280 303 316 312 310 306 286 337 344 354 327 1 326 331 342 329 324 320 318 315 313 314 314 312 310 312 312 308 306 302 301 299 295 295 294 292
233 261 224 185 228 200 229 236 332 356 313 295 283 314 330 318 324 327 342 330 341 330 325 327 326 322 323 322 318 317 314 313 312 309 306 307 306 305 304 303 301 297 295 293
211 236 176 212 233 261 310 42 5 354 328 321 298 311 309 310 317 322 330 335 332 327 325 323 323 321 321 319 315 313 314 313 309 312 313 311 307 304 303 301 300 298 295 291
216 242 215 233 201 313 346 344 339 301 314 323 337 297 303 318 314 323 322 324 326 330 328 324 324 323 319 317 319 318 314 314 315 315 314 313 310 309 307 305 302 299 296 293
279 240 290 248 153 226 274 280 295 253 283 322 295 287 298 301 314 320 320 318 325 330 325 323 321 321 325 327 323 322 320 317 316 317 317 316 315 316 314 312 308 305 302 298
187 233 234 277 273 207 243 291 242 299 5 310 291 297 299 295 319 315 312 314 326 327 322 322 326 330 330 334 349 350 343 342 338 327 326 324 323 322 321 321 317 313 309 305
176 220 248 271 259 276 314 286 294 307 298 288 294 299 302 301 304 308 309 321 325 323 323 324 334 339 349 351 354 349 344 338 337 331 331 328 326 325 324 325 326 324 314 310
198 202 231 290 286 200 247 269 235 242 288 246 258 279 287 293 299 310 316 320 322 324 328 353 347 351 352 354 355 346 345 337 338 338 337 333 331 327 322 319 315 311 308 308
226 211 176 224 238 289 260 262 279 281 250 268 284 277 290 297 311 318 322 325 329 344 2 355 353 353 353 352 353 351 347 340 343 342 341 340 338 338 335 329 321 312 309 308
216 212 200 278 282 261 253 290 292 291 281 285 267 274 292 316 318 325 329 337 354 355 2 356 353 353 353 355 356 354 348 344 349 346 346 346 344 342 342 342 341 336 324 316
231 227 214 204 255 246 269 291 297 296 288 243 277 296 323 327 327 331 334 338 345 356 0 357 353 354 355 357 358 357 352 350 352 349 349 349 348 350 348 347 348 347 342 340
238 228 218 230 242 260 285 297 301 300 289 281 296 301 320 323 329 328 330 346 354 353 354 354 355 356 355 358 359 0 358 356 353 355 353 350 349 350 353 357 354 351 352 350
246 233 229 243 257 269 280 285 291 293 301 312 305 325 328 334 338 329 316 340 349 349 352 353 357 356 355 358 1 4 4 2 358 357 353 354 355 357 358 2 7 9 6 5
249 244 246 259 266 279 278 281 287 297 311 313 316 329 334 335 339 327 318 337 337 340 348 353 355 357 357 358 3 6 7 5 3 2 1 3 8 14 17 22 24 21 18 19
243 238 250 261 264 265 296 284 295 305 317 318 328 329 329 333 346 330 327 335 326 337 344 350 352 356 357 358 3 7 9 9 9 7 12 16 24 30 33 29 26 22 21 22
235 241 247 259 254 264 268 283 297 306 330 325 331 333 333 336 354 332 339 331 327 339 348 347 346 353 356 0 3 7 8 12 14 16 21 28 32 29 26 27 25 22 22 21
231 242 245 245 225 275 300 283 294 307 327 327 335 334 340 339 344 349 347 346 340 338 348 344 350 355 358 2 5 7 9 12 16 23 29 33 30 29 27 25 22 24 27 30
236 241 240 238 215 263 278 289 302 312 323 330 338 338 341 341 340 335 334 336 329 339 348 352 352 358 1 2 7 8 10 12 16 24 28 27 26 26 24 24 24 30 31 32
235 236 235 236 239 266 268 287 303 315 322 332 337 340 341 343 340 331 325 342 333 333 338 341 348 354 0 3 6 11 11 12 14 19 24 24 21 23 25 26 25 27 32 35
240 246 257 247 254 264 278 291 303 313 320 330 340 338 339 343 343 335 317 334 341 340 335 340 345 348 355 1 5 11 14 13 13 17 16 14 17 19 22 26 27 29 31 35
235 236 242 244 254 266 280 291 303 312 320 333 341 335 338 342 343 340 319 327 341 349 344 344 344 345 350 354 0 7 15 17 15 15 18 16 12 8 9 17 24 27 29 34
229 234 237 241 253 265 279 290 301 310 322 337 339 334 337 340 343 345 326 316 329 336 342 345 347 344 347 350 351 1 8 17 19 15 15 17 18 16 12 9 15 22 28 30
227 226 232 240 255 268 278 286 299 310 326 335 338 333 337 342 342 345 339 308 319 324 333 341 346 347 347 350 351 357 2 10 18 17 16 13 13 16 15 14 12 10 20 29